EKRAN 20

Satellite information

Favourite Embed

Satellite Type and Status

PAYLOADIN ORBIT

Key statistics

Satellite EKRAN 20 at a glance.

Uptime

12001

Days in orbit

Revolutions

≈ 1.0

Per day

Orbit

OTHER

Other

Inclination

13.9

Latest

Satellite identification and parameters

Extended collection of information and parameters for EKRAN 20.

Object identification

Identified? True

Debris? False

Object name: EKRAN 20

International designator: 1992-074A

Object number (NORAD): 22210

Object ID (CCSDS): 22210

Country: COMMONWEALTH OF INDEPENDENT STATES (CIS)

Current information (Y/N): Y

RCS size: LARGE

Orbital parameters

Period: 1436.859 minutes

Inclination: 13.8545 deg

SMA: 42179.646 km

Apoapsis: 35830.375 km

Periapsis: 35772.647 km

RAAN: 346.3498 deg

Eccentricy: 0.0006843

Argument of periapsis: 200.2985 deg

Mean anomaly: 187.3612 deg

Mean motion: 1.00218608 rev/day

Mean motion (dot): -0.0000005 rev/day2

B* drag term: 0.0 1/REarth

Two-line elements (TLE)

Creation date: Sept. 8, 2025, 3:16 a.m.

Reference frame: TEME

Reference center: EARTH

Epoch: Sept. 7, 2025, 9:06 p.m. UTC

TLE line 0: 0 EKRAN 20

TLE line 1: 1 22210U 92074A 25250.87940755 -.00000050 00000-0 00000-0 0 9994

TLE line 2: 2 22210 13.8545 346.3498 0006843 200.2985 187.3612 1.00218608 44540

Live tracking on map

Real-time ground track for satellite EKRAN 20.

In-orbit conjunctions

A list of the most updated potential collisions computed for object EKRAN 20.

Target Orbit TCA Probability of collision Miss distance Type
COSMOS 1961 OTHER 2025-08-20 11:39:33 TBA 4756.0 (m) PAYLOAD
BREEZE-M R/B OTHER 2024-11-19 07:32:42 TBA 4438.0 (m) ROCKET BODY
RADUGA 5 OTHER 2024-09-12 20:00:58 TBA 2522.0 (m) PAYLOAD
LUCH 1 OTHER 2024-07-05 05:15:21 TBA 4946.0 (m) PAYLOAD
SYNCOM 2 (A 26) OTHER 2024-06-09 09:33:44 TBA 3652.0 (m) PAYLOAD

Associated space launch

Direct broadcasting satellite

EKRAN 20 was lifted into orbit during the mission ‘Proton | Ekran-M 3’, on board a Proton space rocket.

The launch took place on Oct. 30, 1992, 2:59 p.m. from 81/23 (81L).

For more information about the launch, click the button.

Launch to space Proton | Ekran-M 3
Proton | Ekran-M 3

Agency: N/A

Status: Launch Successful

Launch date: Oct. 30, 1992, 2:59 p.m. UTC

Rocket: Proton

Launch pad: 81/23 (81L)

Location: Baikonur Cosmodrome, Republic of Kazakhstan

...

Latest news about this satellite

There are no fresh news available about this satellite. Check back as we update our databases every day.


Newsletter sign-up

Weekly statistics, charts and insights to help you stay on top of the space industry.